Yoho Park, British Columbia

11:23 AM MST on January 16, 2018 (GMT -0700)
Yoho Park

Weather History for CWYL - December, 2013

Change the Weather History Date:

Saturday, December 21, 2013

  Actual Average Record
Temperature  
Mean Temperature 6 °F -  
Max Temperature 10 °F - - ()
Min Temperature 3 °F - - ()
Degree Days  
Heating Degree Days 58    
Moisture  
Dew Point 5 °F    
Average Humidity 91    
Maximum Humidity 96    
Minimum Humidity 81    
Precipitation  
Precipitation 0.00 in - - ()
Sea Level Pressure  
Sea Level Pressure 29.96 in    
Wind  
Wind Speed 12 mph ()    
Max Wind Speed 17 mph    
Max Gust Speed 21 mph    
T = Trace of Precipitation, MM = Missing Value Source: Averaged Metar Reports

Daily Weather History Graph

Daily Weather History Graph

Search for Another Location

Airport or City:

Trip Planner

Search our weather history database for the weather conditions in past years. The results will help you decide how hot, cold, wet, or windy it might be!

Date:

Astronomy

Dec. 21, 2013 Rise Set
Actual Time 8:48 AM MST 4:38 PM MST
Civil Twilight 8:08 AM MST 5:19 PM MST
Nautical Twilight 7:25 AM MST 6:02 PM MST
Astronomical Twilight 6:44 AM MST 6:42 PM MST
Moon 9:27 PM MST (12/21) 10:51 AM MST (12/21)
Length of Visible Light 9h 10m
Length of Day
7h 50m
Waning Gibbous, 84% of the Moon is Illuminated
Dec 21
Waning Gibbous
Dec 25
Last Quarter
Jan 1
New
Jan 7
First Quarter
Jan 15
Full

Hourly Weather History & Observations

Time (MST) Temp. Windchill Dew Point Humidity Pressure Visibility Wind Dir Wind Speed Gust Speed Precip Events Conditions
12:00 AM 6.1 °F -10.2 °F 4.1 °F 92% 29.76 in - WSW 12.7 mph - N/A   Unknown
1:00 AM 6.3 °F -10.7 °F 4.3 °F 92% 29.76 in - WSW 13.8 mph - N/A   Unknown
2:00 AM 5.7 °F -12.0 °F 3.7 °F 92% 29.79 in - WSW 15.0 mph - N/A   Unknown
3:00 AM 5.0 °F -10.0 °F 3.0 °F 92% 29.82 in - WSW 10.4 mph - N/A   Unknown
4:00 AM 4.1 °F -10.2 °F 2.1 °F 91% 29.83 in - WSW 9.2 mph - N/A   Unknown
5:00 AM 5 °F - 3 °F 89% 29.85 in - WSW 11.5 mph - -  
5:00 AM 5.4 °F -10.4 °F 3.4 °F 92% 29.85 in - WSW 11.5 mph - N/A   Unknown
6:00 AM 6.1 °F -10.9 °F 3.9 °F 91% 29.87 in - WSW 13.8 mph - N/A   Unknown
7:00 AM 5.7 °F -9.9 °F 3.6 °F 91% 29.89 in - WSW 11.5 mph - N/A   Unknown
8:00 AM 5.4 °F -11.8 °F 3.4 °F 92% 29.91 in - WSW 13.8 mph - N/A   Unknown
9:00 AM 6.1 °F -10.2 °F 4.1 °F 92% 29.94 in - SW 12.7 mph - N/A   Unknown
10:00 AM 7.5 °F -9.7 °F 5.4 °F 91% 29.96 in - WSW 15.0 mph - N/A   Unknown
11:00 AM 9 °F - 6 °F 81% 29.98 in - WSW 17.3 mph - -  
11:00 AM 8.6 °F -9.5 °F 7.7 °F 96% 29.98 in - WSW 17.3 mph - N/A   Unknown
12:00 PM 9.0 °F -8.5 °F 6.1 °F 88% 29.98 in - WSW 16.1 mph - N/A   Unknown
1:00 PM 9.7 °F -7.5 °F 6.4 °F 87% 29.99 in - WSW 16.1 mph - N/A   Unknown
2:00 PM 9.9 °F -7.3 °F 6.8 °F 87% 29.99 in - WSW 16.1 mph - N/A   Unknown
3:00 PM 8.8 °F -7.5 °F 5.7 °F 87% 30.00 in - WSW 13.8 mph - N/A   Unknown
4:00 PM 8.1 °F -8.4 °F 5.7 °F 90% 30.04 in - WSW 13.8 mph - N/A   Unknown
5:00 PM 8 °F - 6 °F 90% 30.05 in - WSW 13.8 mph - -  
5:00 PM 8.1 °F -8.4 °F 6.4 °F 93% 30.05 in - WSW 13.8 mph - N/A   Unknown
6:00 PM 8.6 °F -7.7 °F 7.0 °F 93% 30.06 in - WSW 13.8 mph - N/A   Unknown
7:00 PM 8.8 °F -6.8 °F 7.0 °F 92% 30.07 in - WSW 12.7 mph - N/A   Unknown
8:00 PM 8.6 °F -9.5 °F 7.0 °F 93% 30.08 in - WSW 17.3 mph - N/A   Unknown
9:00 PM 8.4 °F -9.2 °F 6.8 °F 93% 30.08 in - WSW 16.1 mph - N/A   Unknown
10:00 PM 9.0 °F -7.9 °F 7.5 °F 94% 30.09 in - WSW 15.0 mph 20.7 mph N/A   Unknown
11:00 PM 9 °F - 8 °F 90% 30.08 in - WSW 15.0 mph - -  
11:00 PM 9.3 °F -7.4 °F 7.5 °F 92% 30.08 in - WSW 15.0 mph - N/A   Unknown